Tracking 35331 objects as of 16-Sep-2026
HD Live streaming from Space Station
objects crossing your sky now

COSMOS 541 DEB


COSMOS 541 DEB is no longer on orbit


NORAD ID: 6338
Int'l Code: 1972-105E
Launch date: December 27, 1972
Source: Commonwealth of Independent States (former USSR) (CIS)
Launch site: PLESETSK MISSILE AND SPACE COMPLEX (PKMTR)
Decay date: 1973-01-12

Note: This is SATELLITE DEBRIS
Your satellite tracking list
Your tracking list is empty




NASA's NSSDC Master Catalog

Two Line Element Set (TLE):
1 06338U 72105  E 73009.95235389  .03513018 +00000-0 +00000-0 0  9999
2 06338 081.2852 260.4569 0055120 026.2770 334.1231 16.08233372002168
Source of the keplerian elements: AFSPC